Content
SEND FEEDBACK

Daily
Averages
Monthly
Summary
United States of America

ST. LOUIS - SAINT LOUIS UNIVERSITY, MISSOURI


Home > North America > United States > Missouri
Elevation: 580 feet     Latitude: 38 38N     Longitude: 090 14W

WEATHER
 
SELECT A DAY
Number of Records: 186,223;   Date Range: 1/1/95 - 8/12/14
 
SHARE

PRINT THIS DATA

[ ← Previous Day ]
WEATHER ALMANAC - SEPTEMBER 18, 2013
[ Next Day → ]
[ °C ]   °F
Weather ElementAverageHighLow
Temperature73 °F88 °F (2:53 pm)66 °F (1:53 am)
Dewpoint67.1 °F73.4 °F (5:20 pm)61 °F (1:53 am)
Humidity83 %96 % (7:53 pm)48 % (2:53 pm)
Barometer30.02 in30.08 in (2:53 am)29.95 in (5:53 pm)
Wind Speed4.3 mph11.5 mph (4:53 pm)
Weather ElementAverage
Visibility7.2 mi
Wind DirectionESE (112.1 °)

Weather ElementTotal
Precipitation0.91 in
Cooling Degree Days12 (Base 65)
Growing Degree Days27 (Base 50)
Averaged from 28 records on September 18, 2013
WEATHER CONDITIONS BREAKOUT
WIND DIRECTION BREAKOUT
WEATHER BY HOUR - SEPTEMBER 18, 2013
[ °C ]   °F
Local TimeTemperatureDewpointHumidityBarometerVisibilityWind DirectionWind SpeedGust SpeedPrecipitationEventsConditions
1:53 AM66.0 °F61.0 °F84 %30.07 in10.0 miCalm0.00 inMostly Cloudy
2:53 AM66.0 °F63.0 °F90 %30.08 in5.0 miCalm0.02 inRainRain
3:53 AM66.0 °F63.0 °F90 %30.07 in5.0 miENE (70°)3.5 mph0.06 inRainLight Rain
4:53 AM66.0 °F64.0 °F93 %30.07 in3.0 miCalm0.06 inRainRain
5:09 AM66.2 °F64.4 °F94 %30.08 in2.5 miSouth (170°)4.6 mph0.04 inRainRain
5:20 AM66.2 °F64.4 °F94 %30.07 in1.5 miSE (130°)8.1 mph0.14 inRainHeavy Rain
5:27 AM66.2 °F64.4 °F94 %30.07 in3.0 miSE (130°)4.6 mph0.14 inRainLight Rain
5:53 AM66.0 °F64.0 °F93 %30.06 in5.0 miSSE (150°)6.9 mph0.18 inOvercast
6:53 AM66.9 °F64.0 °F90 %30.06 in6.0 miSSE (160°)5.8 mphOvercast
7:53 AM66.9 °F64.0 °F90 %30.07 in5.0 miSouth (170°)5.8 mph0.02 inOvercast
8:53 AM68.0 °F64.9 °F90 %30.07 in6.0 miSE (140°)6.9 mphMostly Cloudy
9:53 AM72.0 °F66.9 °F84 %30.08 in9.0 miSE (140°)6.9 mphClear
10:53 AM73.9 °F66.9 °F79 %30.06 in10.0 miSSE (160°)8.1 mphPartly Cloudy
11:53 AM79.0 °F68.0 °F69 %30.05 in10.0 miSE (140°)8.1 mphPartly Cloudy
12:53 PM82.9 °F69.1 °F63 %30.03 in10.0 miVariable4.6 mphClear
1:53 PM84.9 °F66.9 °F55 %29.99 in10.0 miVariable3.5 mphClear
2:53 PM88.0 °F66.0 °F48 %29.98 in10.0 miCalmScattered Clouds
3:53 PM86.0 °F68.0 °F55 %29.96 in10.0 miSSW (200°)8.1 mphMostly Cloudy
4:53 PM77.0 °F70.0 °F79 %29.98 in5.0 miWest (280°)11.5 mph0.02 inRainRain
5:09 PM75.2 °F71.6 °F89 %29.98 in2.0 miWNW (300°)3.5 mph0.07 inRainHeavy Rain
5:20 PM77.0 °F73.4 °F89 %29.97 in6.0 miCalm0.08 inRainLight Rain
5:53 PM77.0 °F73.0 °F88 %29.95 in7.0 miCalm0.08 inClear
6:53 PM75.0 °F72.0 °F90 %29.96 in10.0 miCalmClear
7:53 PM73.0 °F72.0 °F96 %29.96 in10.0 miSSE (150°)3.5 mphClear
8:53 PM73.0 °F70.0 °F90 %29.97 in10.0 miSouth (180°)4.6 mphClear
9:53 PM75.0 °F68.0 °F79 %29.97 in10.0 miSSE (160°)3.5 mphClear
10:53 PM73.0 °F68.0 °F84 %29.97 in10.0 miSSE (160°)4.6 mphClear
11:53 PM72.0 °F66.9 °F84 %29.97 in10.0 miSSE (150°)4.6 mphClear
Hourly data recorded from KCPS, located miles away from St. Louis - Saint Louis University, Missouri







STORIES FROM OUR PARTNERS